SBMA

Details ICAO SBMA (MAB)
Name Maraba
Region Brazil
Timezone America/Belem (UTC-3.0)
Plans Departing 16
Arriving 23
Stats Elevation 357 ft / 109 m (AMSL)
Location -5.368588° -49.138025°
Runways 1
Magnetic Variation 20.515° W
Sunrise 2017-03-25 09:21:03 UTC / 2017-03-25 06:21:03 Local
Sunset 2017-03-25 21:26:18 UTC / 2017-03-25 18:26:18 Local
Advertisement - Login to hide

Runways

ID Width Length Bearing (true) Bearing (mag) Surface Threshold Offset Overrun Length
07 148 ft / 45 m 6,582 ft / 2,006 m 50.35° 70.86° Asphalt 0 ft / 0 m 195 ft / 59 m
25 148 ft / 45 m 6,582 ft / 2,006 m 230.35° 250.86° Asphalt 0 ft / 0 m 195 ft / 59 m

Map

Weather

Temperature
Clouds and Precipitation
Forecast for 2017-03-25 12:00 UTC. Updated 12 minutes ago
Winds

METAR

SBMA 250900Z 31001KT CAVOK 24/23 Q1011

TAF

Not found

Frequencies

Tower 125.90 MHz RDO
Warning: Do not use this data for real-world aviation or navigation. No guarantee of current accuracy is given.